This is the latest recevied weather packets stored in our database for station/object N2MLB-WX. If no packets are shown the sender has not sent any weather packets the latest 10 day(s).
| Time | Temp. | Humidity | Pressure | Rain* | Wind** | Luminosity | Snow |
|---|---|---|---|---|---|---|---|
| 1777252347 | 11.11° C | 62% | 1017 hPa | 0 mm | - | 0 W/m² | - |
| 1777252039 | 11.11° C | 61% | 1017 hPa | 0 mm | - | 0 W/m² | - |
| 1777251740 | 11.11° C | 63% | 1017 hPa | 0 mm | - | 0 W/m² | - |
| 1777251440 | 11.67° C | 61% | 1017 hPa | 0 mm | - | 0 W/m² | - |
| 1777251139 | 12.22° C | 59% | 1017 hPa | 0 mm | - | 0 W/m² | - |
| 1777250840 | 12.22° C | 57% | 1017 hPa | 0 mm | - | 0 W/m² | - |
| 1777250540 | 12.78° C | 57% | 1017 hPa | 0 mm | - | 0 W/m² | - |
| 1777250239 | 12.78° C | 57% | 1017 hPa | 0 mm | - | 0 W/m² | - |
| 1777249940 | 12.78° C | 56% | 1017 hPa | 0 mm | - | 0 W/m² | - |
| 1777249639 | 13.33° C | 57% | 1017 hPa | 0 mm | - | 0 W/m² | - |
| 1777249339 | 13.33° C | 56% | 1017 hPa | 0 mm | - | 0 W/m² | - |
| 1777249039 | 13.33° C | 55% | 1017 hPa | 0 mm | - | 0 W/m² | - |
| 1777248740 | 13.89° C | 54% | 1017 hPa | 0 mm | - | 1 W/m² | - |
| 1777248439 | 13.89° C | 54% | 1017 hPa | 0 mm | - | 1 W/m² | - |
| 1777248139 | 14.44° C | 54% | 1017 hPa | 0 mm | - | 2 W/m² | - |
| 1777247839 | 14.44° C | 54% | 1016 hPa | 0 mm | - | 2 W/m² | - |
| 1777247540 | 14.44° C | 53% | 1016 hPa | 0 mm | - | 3 W/m² | - |
| 1777247239 | 15° C | 53% | 1016 hPa | 0 mm | - | 4 W/m² | - |
| 1777246939 | 15° C | 52% | 1016 hPa | 0 mm | - | 4 W/m² | - |
| 1777246640 | 15.56° C | 50% | 1016 hPa | 0 mm | - | 5 W/m² | - |
| 1777246339 | 16.67° C | 47% | 1016 hPa | 0 mm | - | 7 W/m² | - |
| 1777246039 | 17.78° C | 48% | 1016 hPa | 0 mm | - | 11 W/m² | - |
| 1777245739 | 17.78° C | 48% | 1016 hPa | 0 mm | - | 15 W/m² | - |
| 1777245439 | 17.78° C | 46% | 1016 hPa | 0 mm | - | 21 W/m² | - |
| 1777245139 | 17.78° C | 44% | 1016 hPa | 0 mm | - | 22 W/m² | - |
* Rain latest hour (hover to see other rain measurements)
** Current wind speed in m/s (hover to see current wind gust speed)